owner,sensor,date,latitude,longitude,vertical_datum,wind_speed,wind_to_direction,wind_speed_of_gust,qcFlag 
COMPS,ioos:station:USF.COMPS:FHP:1,2019-01-01T00:00:00Z,28.1530,-82.8010,10.0,3.09,214.49,3.62,'1111122,1111122,1111122' 
COMPS,ioos:station:USF.COMPS:FHP:1,2019-01-01T00:06:00Z,28.1530,-82.8010,10.0,2.35,234.14,2.74,'1111122,1111122,1111122' 
COMPS,ioos:station:USF.COMPS:FHP:1,2019-01-01T00:12:00Z,28.1530,-82.8010,10.0,2.75,216.38,3.13,'1111122,1111122,1111122' 
COMPS,ioos:station:USF.COMPS:FHP:1,2019-01-01T00:18:00Z,28.1530,-82.8010,10.0,2.89,216.59,3.42,'1111122,1111122,1111122' 
COMPS,ioos:station:USF.COMPS:FHP:1,2019-01-01T00:24:00Z,28.1530,-82.8010,10.0,2.69,222.28,3.03,'1111122,1111122,1111122' 
COMPS,ioos:station:USF.COMPS:FHP:1,2019-01-01T00:30:00Z,28.1530,-82.8010,10.0,2.87,202.55,3.33,'1111122,1111122,1111122' 
COMPS,ioos:station:USF.COMPS:FHP:1,2019-01-01T00:36:00Z,28.1530,-82.8010,10.0,3.11,199.69,3.52,'1111122,1111122,1111122' 
COMPS,ioos:station:USF.COMPS:FHP:1,2019-01-01T00:42:00Z,28.1530,-82.8010,10.0,3.31,200.45,3.72,'1111122,1111122,1111122' 
COMPS,ioos:station:USF.COMPS:FHP:1,2019-01-01T00:48:00Z,28.1530,-82.8010,10.0,2.94,199.67,3.23,'1111122,1111122,1111122' 
COMPS,ioos:station:USF.COMPS:FHP:1,2019-01-01T00:54:00Z,28.1530,-82.8010,10.0,2.57,201.01,3.03,'1111122,1111122,1111122' 
COMPS,ioos:station:USF.COMPS:FHP:1,2019-01-01T01:00:00Z,28.1530,-82.8010,10.0,2.29,203.67,2.74,'1111122,1111122,1111122' 
COMPS,ioos:station:USF.COMPS:FHP:1,2019-01-01T01:06:00Z,28.1530,-82.8010,10.0,1.87,218.99,2.15,'1111122,1111122,1111122' 
COMPS,ioos:station:USF.COMPS:FHP:1,2019-01-01T01:12:00Z,28.1530,-82.8010,10.0,2.0,216.46,2.35,'1111122,1111122,1111122' 
COMPS,ioos:station:USF.COMPS:FHP:1,2019-01-01T01:18:00Z,28.1530,-82.8010,10.0,1.54,230.09,2.05,'1111122,1111122,1111122' 
COMPS,ioos:station:USF.COMPS:FHP:1,2019-01-01T01:24:00Z,28.1530,-82.8010,10.0,1.06,236.52,1.46,'1111122,1111122,1111122' 
COMPS,ioos:station:USF.COMPS:FHP:1,2019-01-01T01:30:00Z,28.1530,-82.8010,10.0,1.06,251.43,1.37,'1111122,1111122,1111122' 
COMPS,ioos:station:USF.COMPS:FHP:1,2019-01-01T01:36:00Z,28.1530,-82.8010,10.0,1.16,271.95,1.37,'1111122,1111122,1111122' 
COMPS,ioos:station:USF.COMPS:FHP:1,2019-01-01T01:42:00Z,28.1530,-82.8010,10.0,1.3,269.8,1.56,'1111122,1111122,1111122' 
COMPS,ioos:station:USF.COMPS:FHP:1,2019-01-01T01:48:00Z,28.1530,-82.8010,10.0,1.31,264.19,1.66,'1111122,1111122,1111122' 
COMPS,ioos:station:USF.COMPS:FHP:1,2019-01-01T01:54:00Z,28.1530,-82.8010,10.0,1.22,256.98,1.56,'1111122,1111122,1111122' 
COMPS,ioos:station:USF.COMPS:FHP:1,2019-01-01T02:00:00Z,28.1530,-82.8010,10.0,1.06,241.83,1.46,'1111122,1111122,1111122' 
COMPS,ioos:station:USF.COMPS:FHP:1,2019-01-01T02:06:00Z,28.1530,-82.8010,10.0,0.57,234.73,0.97,'1111122,1111122,1111122' 
COMPS,ioos:station:USF.COMPS:FHP:1,2019-01-01T02:12:00Z,28.1530,-82.8010,10.0,0.13,233.0,0.49,'1111122,1111122,1111122' 
COMPS,ioos:station:USF.COMPS:FHP:1,2019-01-01T02:18:00Z,28.1530,-82.8010,10.0,0.09,234.06,0.09,'1111122,1111122,1111122' 
COMPS,ioos:station:USF.COMPS:FHP:1,2019-01-01T02:24:00Z,28.1530,-82.8010,10.0,0.46,260.1,0.88,'1111122,1111122,1111122' 
COMPS,ioos:station:USF.COMPS:FHP:1,2019-01-01T02:30:00Z,28.1530,-82.8010,10.0,0.63,251.51,1.07,'1111122,1111122,1111122' 
COMPS,ioos:station:USF.COMPS:FHP:1,2019-01-01T02:36:00Z,28.1530,-82.8010,10.0,0.78,258.77,0.97,'1111122,1111122,1111122' 
COMPS,ioos:station:USF.COMPS:FHP:1,2019-01-01T02:42:00Z,28.1530,-82.8010,10.0,1.08,260.97,1.37,'1111122,1111122,1111122' 
COMPS,ioos:station:USF.COMPS:FHP:1,2019-01-01T02:48:00Z,28.1530,-82.8010,10.0,1.2,273.71,1.46,'1111122,1111122,1111122' 
COMPS,ioos:station:USF.COMPS:FHP:1,2019-01-01T02:54:00Z,28.1530,-82.8010,10.0,1.24,260.12,1.56,'1111122,1111122,1111122' 
COMPS,ioos:station:USF.COMPS:FHP:1,2019-01-01T03:00:00Z,28.1530,-82.8010,10.0,1.11,254.2,1.37,'1111122,1111122,1111122' 
COMPS,ioos:station:USF.COMPS:FHP:1,2019-01-01T03:06:00Z,28.1530,-82.8010,10.0,1.56,249.29,2.15,'1111122,1111122,1111122' 
COMPS,ioos:station:USF.COMPS:FHP:1,2019-01-01T03:12:00Z,28.1530,-82.8010,10.0,2.15,235.57,2.84,'1111122,1111122,1111122' 
COMPS,ioos:station:USF.COMPS:FHP:1,2019-01-01T03:18:00Z,28.1530,-82.8010,10.0,2.36,229.37,2.93,'1111122,1111122,1111122' 
COMPS,ioos:station:USF.COMPS:FHP:1,2019-01-01T03:24:00Z,28.1530,-82.8010,10.0,2.19,220.18,2.64,'1111122,1111122,1111122' 
COMPS,ioos:station:USF.COMPS:FHP:1,2019-01-01T03:30:00Z,28.1530,-82.8010,10.0,1.93,200.42,2.35,'1111122,1111122,1111122' 
COMPS,ioos:station:USF.COMPS:FHP:1,2019-01-01T03:36:00Z,28.1530,-82.8010,10.0,1.66,181.83,1.86,'1111122,1111122,1111122' 
COMPS,ioos:station:USF.COMPS:FHP:1,2019-01-01T03:42:00Z,28.1530,-82.8010,10.0,1.4,204.61,1.76,'1111122,1111122,1111122' 
COMPS,ioos:station:USF.COMPS:FHP:1,2019-01-01T03:48:00Z,28.1530,-82.8010,10.0,1.7,219.8,1.86,'1111122,1111122,1111122' 
COMPS,ioos:station:USF.COMPS:FHP:1,2019-01-01T03:54:00Z,28.1530,-82.8010,10.0,1.47,195.13,1.95,'1111122,1111122,1111122' 
COMPS,ioos:station:USF.COMPS:FHP:1,2019-01-01T04:00:00Z,28.1530,-82.8010,10.0,1.59,181.84,2.05,'1111122,1111122,1111122' 
COMPS,ioos:station:USF.COMPS:FHP:1,2019-01-01T04:06:00Z,28.1530,-82.8010,10.0,2.19,193.82,2.84,'1111122,1111122,1111122' 
COMPS,ioos:station:USF.COMPS:FHP:1,2019-01-01T04:12:00Z,28.1530,-82.8010,10.0,2.46,204.26,2.74,'1111122,1111122,1111122' 
COMPS,ioos:station:USF.COMPS:FHP:1,2019-01-01T04:18:00Z,28.1530,-82.8010,10.0,2.66,210.97,3.03,'1111122,1111122,1111122' 
COMPS,ioos:station:USF.COMPS:FHP:1,2019-01-01T04:24:00Z,28.1530,-82.8010,10.0,2.98,208.36,3.42,'1111122,1111122,1111122' 
COMPS,ioos:station:USF.COMPS:FHP:1,2019-01-01T04:30:00Z,28.1530,-82.8010,10.0,2.94,206.72,3.33,'1111122,1111122,1111122' 
COMPS,ioos:station:USF.COMPS:FHP:1,2019-01-01T04:36:00Z,28.1530,-82.8010,10.0,3.03,200.93,3.42,'1111122,1111122,1111122' 
COMPS,ioos:station:USF.COMPS:FHP:1,2019-01-01T04:42:00Z,28.1530,-82.8010,10.0,3.24,194.23,3.82,'1111122,1111122,1111122' 
COMPS,ioos:station:USF.COMPS:FHP:1,2019-01-01T04:48:00Z,28.1530,-82.8010,10.0,3.62,191.83,4.11,'1111122,1111122,1111122' 
COMPS,ioos:station:USF.COMPS:FHP:1,2019-01-01T04:54:00Z,28.1530,-82.8010,10.0,3.68,189.25,4.21,'1111122,1111122,1111122' 
COMPS,ioos:station:USF.COMPS:FHP:1,2019-01-01T05:00:00Z,28.1530,-82.8010,10.0,3.67,185.22,4.31,'1111122,1111122,1111122' 
COMPS,ioos:station:USF.COMPS:FHP:1,2019-01-01T05:06:00Z,28.1530,-82.8010,10.0,3.95,186.06,4.5,'1111122,1111122,1111122' 
COMPS,ioos:station:USF.COMPS:FHP:1,2019-01-01T05:12:00Z,28.1530,-82.8010,10.0,4.05,186.07,4.41,'1111122,1111122,1111122' 
COMPS,ioos:station:USF.COMPS:FHP:1,2019-01-01T05:18:00Z,28.1530,-82.8010,10.0,4.16,189.27,4.8,'1111122,1111122,1111122' 
COMPS,ioos:station:USF.COMPS:FHP:1,2019-01-01T05:24:00Z,28.1530,-82.8010,10.0,4.47,188.75,5.09,'1111122,1111122,1111122' 
COMPS,ioos:station:USF.COMPS:FHP:1,2019-01-01T05:30:00Z,28.1530,-82.8010,10.0,4.76,187.92,5.19,'1111122,1111122,1111122' 
COMPS,ioos:station:USF.COMPS:FHP:1,2019-01-01T05:36:00Z,28.1530,-82.8010,10.0,4.52,187.1,5.09,'1111122,1111122,1111122' 
COMPS,ioos:station:USF.COMPS:FHP:1,2019-01-01T05:42:00Z,28.1530,-82.8010,10.0,4.39,184.14,4.99,'1111122,1111122,1111122' 
COMPS,ioos:station:USF.COMPS:FHP:1,2019-01-01T05:48:00Z,28.1530,-82.8010,10.0,4.08,177.0,4.9,'1111122,1111122,1111122' 
COMPS,ioos:station:USF.COMPS:FHP:1,2019-01-01T05:54:00Z,28.1530,-82.8010,10.0,3.55,172.54,4.21,'1111122,1111122,1111122' 
COMPS,ioos:station:USF.COMPS:FHP:1,2019-01-01T06:00:00Z,28.1530,-82.8010,10.0,4.02,177.83,4.6,'1111122,1111122,1111122' 
COMPS,ioos:station:USF.COMPS:FHP:1,2019-01-01T06:06:00Z,28.1530,-82.8010,10.0,4.22,179.79,4.7,'1111122,1111122,1111122' 
COMPS,ioos:station:USF.COMPS:FHP:1,2019-01-01T06:12:00Z,28.1530,-82.8010,10.0,4.14,183.96,4.7,'1111122,1111122,1111122' 
COMPS,ioos:station:USF.COMPS:FHP:1,2019-01-01T06:18:00Z,28.1530,-82.8010,10.0,4.05,184.09,4.5,'1111122,1111122,1111122' 
COMPS,ioos:station:USF.COMPS:FHP:1,2019-01-01T06:24:00Z,28.1530,-82.8010,10.0,3.83,186.68,4.7,'1111122,1111122,1111122' 
COMPS,ioos:station:USF.COMPS:FHP:1,2019-01-01T06:30:00Z,28.1530,-82.8010,10.0,3.79,185.65,4.41,'1111122,1111122,1111122' 
COMPS,ioos:station:USF.COMPS:FHP:1,2019-01-01T06:36:00Z,28.1530,-82.8010,10.0,3.76,183.54,4.41,'1111122,1111122,1111122' 
COMPS,ioos:station:USF.COMPS:FHP:1,2019-01-01T06:42:00Z,28.1530,-82.8010,10.0,3.95,178.58,4.5,'1111122,1111122,1111122' 
COMPS,ioos:station:USF.COMPS:FHP:1,2019-01-01T06:48:00Z,28.1530,-82.8010,10.0,3.63,180.73,4.6,'1111122,1111122,1111122' 
COMPS,ioos:station:USF.COMPS:FHP:1,2019-01-01T06:54:00Z,28.1530,-82.8010,10.0,3.51,185.14,4.01,'1111122,1111122,1111122' 
COMPS,ioos:station:USF.COMPS:FHP:1,2019-01-01T07:00:00Z,28.1530,-82.8010,10.0,3.7,184.05,4.31,'1111122,1111122,1111122' 
COMPS,ioos:station:USF.COMPS:FHP:1,2019-01-01T07:06:00Z,28.1530,-82.8010,10.0,3.34,184.23,4.21,'1111122,1111122,1111122' 
COMPS,ioos:station:USF.COMPS:FHP:1,2019-01-01T07:12:00Z,28.1530,-82.8010,10.0,3.45,179.69,4.11,'1111122,1111122,1111122' 
COMPS,ioos:station:USF.COMPS:FHP:1,2019-01-01T07:18:00Z,28.1530,-82.8010,10.0,2.94,169.14,3.62,'1111122,1111122,1111122' 
COMPS,ioos:station:USF.COMPS:FHP:1,2019-01-01T07:24:00Z,28.1530,-82.8010,10.0,2.31,154.72,2.93,'1111122,1111122,1111122' 
COMPS,ioos:station:USF.COMPS:FHP:1,2019-01-01T07:30:00Z,28.1530,-82.8010,10.0,1.98,145.94,2.45,'1111122,1111122,1111122' 
COMPS,ioos:station:USF.COMPS:FHP:1,2019-01-01T07:36:00Z,28.1530,-82.8010,10.0,1.89,139.78,2.45,'1111122,1111122,1111122' 
COMPS,ioos:station:USF.COMPS:FHP:1,2019-01-01T07:42:00Z,28.1530,-82.8010,10.0,1.82,139.05,2.25,'1111122,1111122,1111122' 
COMPS,ioos:station:USF.COMPS:FHP:1,2019-01-01T07:48:00Z,28.1530,-82.8010,10.0,1.71,136.02,2.15,'1111122,1111122,1111122' 
COMPS,ioos:station:USF.COMPS:FHP:1,2019-01-01T07:54:00Z,28.1530,-82.8010,10.0,2.01,138.97,2.45,'1111122,1111122,1111122' 
COMPS,ioos:station:USF.COMPS:FHP:1,2019-01-01T08:00:00Z,28.1530,-82.8010,10.0,1.97,143.93,2.54,'1111122,1111122,1111122' 
COMPS,ioos:station:USF.COMPS:FHP:1,2019-01-01T08:06:00Z,28.1530,-82.8010,10.0,2.36,147.24,2.74,'1111122,1111122,1111122' 
COMPS,ioos:station:USF.COMPS:FHP:1,2019-01-01T08:12:00Z,28.1530,-82.8010,10.0,1.93,147.25,2.35,'1111122,1111122,1111122' 
COMPS,ioos:station:USF.COMPS:FHP:1,2019-01-01T08:18:00Z,28.1530,-82.8010,10.0,1.88,137.48,2.45,'1111122,1111122,1111122' 
COMPS,ioos:station:USF.COMPS:FHP:1,2019-01-01T08:24:00Z,28.1530,-82.8010,10.0,1.55,134.49,1.95,'1111122,1111122,1111122' 
COMPS,ioos:station:USF.COMPS:FHP:1,2019-01-01T08:30:00Z,28.1530,-82.8010,10.0,1.38,127.79,1.95,'1111122,1111122,1111122' 
COMPS,ioos:station:USF.COMPS:FHP:1,2019-01-01T08:36:00Z,28.1530,-82.8010,10.0,1.37,128.89,1.76,'1111122,1111122,1111122' 
COMPS,ioos:station:USF.COMPS:FHP:1,2019-01-01T08:42:00Z,28.1530,-82.8010,10.0,1.08,135.33,1.46,'1111122,1111122,1111122' 
COMPS,ioos:station:USF.COMPS:FHP:1,2019-01-01T08:48:00Z,28.1530,-82.8010,10.0,1.03,141.04,1.56,'1111122,1111122,1111122' 
COMPS,ioos:station:USF.COMPS:FHP:1,2019-01-01T08:54:00Z,28.1530,-82.8010,10.0,1.11,144.58,1.37,'1111122,1111122,1111122' 
COMPS,ioos:station:USF.COMPS:FHP:1,2019-01-01T09:00:00Z,28.1530,-82.8010,10.0,1.35,149.31,1.95,'1111122,1111122,1111122' 
COMPS,ioos:station:USF.COMPS:FHP:1,2019-01-01T09:06:00Z,28.1530,-82.8010,10.0,1.81,148.33,2.15,'1111122,1111122,1111122' 
COMPS,ioos:station:USF.COMPS:FHP:1,2019-01-01T09:12:00Z,28.1530,-82.8010,10.0,1.75,138.64,2.05,'1111122,1111122,1111122' 
COMPS,ioos:station:USF.COMPS:FHP:1,2019-01-01T09:18:00Z,28.1530,-82.8010,10.0,2.13,144.24,2.54,'1111122,1111122,1111122' 
COMPS,ioos:station:USF.COMPS:FHP:1,2019-01-01T09:24:00Z,28.1530,-82.8010,10.0,2.34,139.2,2.64,'1111122,1111122,1111122' 
COMPS,ioos:station:USF.COMPS:FHP:1,2019-01-01T09:30:00Z,28.1530,-82.8010,10.0,2.29,136.46,2.54,'1111122,1111122,1111122' 
COMPS,ioos:station:USF.COMPS:FHP:1,2019-01-01T09:36:00Z,28.1530,-82.8010,10.0,2.31,128.16,2.74,'1111122,1111122,1111122' 
COMPS,ioos:station:USF.COMPS:FHP:1,2019-01-01T09:42:00Z,28.1530,-82.8010,10.0,2.13,129.64,2.54,'1111122,1111122,1111122' 
COMPS,ioos:station:USF.COMPS:FHP:1,2019-01-01T09:48:00Z,28.1530,-82.8010,10.0,2.16,128.1,2.64,'1111122,1111122,1111122' 
COMPS,ioos:station:USF.COMPS:FHP:1,2019-01-01T09:54:00Z,28.1530,-82.8010,10.0,2.31,128.0,2.93,'1111122,1111122,1111122' 
COMPS,ioos:station:USF.COMPS:FHP:1,2019-01-01T10:00:00Z,28.1530,-82.8010,10.0,2.42,130.26,2.93,'1111122,1111122,1111122' 
COMPS,ioos:station:USF.COMPS:FHP:1,2019-01-01T10:06:00Z,28.1530,-82.8010,10.0,2.58,130.97,3.23,'1111122,1111122,1111122' 
COMPS,ioos:station:USF.COMPS:FHP:1,2019-01-01T10:12:00Z,28.1530,-82.8010,10.0,2.77,126.93,3.42,'1111122,1111122,1111122' 
COMPS,ioos:station:USF.COMPS:FHP:1,2019-01-01T10:18:00Z,28.1530,-82.8010,10.0,2.54,128.52,3.03,'1111122,1111122,1111122' 
COMPS,ioos:station:USF.COMPS:FHP:1,2019-01-01T10:24:00Z,28.1530,-82.8010,10.0,2.32,126.75,2.74,'1111122,1111122,1111122' 
COMPS,ioos:station:USF.COMPS:FHP:1,2019-01-01T10:30:00Z,28.1530,-82.8010,10.0,2.28,130.8,2.84,'1111122,1111122,1111122' 
COMPS,ioos:station:USF.COMPS:FHP:1,2019-01-01T10:36:00Z,28.1530,-82.8010,10.0,2.4,131.66,2.84,'1111122,1111122,1111122' 
COMPS,ioos:station:USF.COMPS:FHP:1,2019-01-01T10:42:00Z,28.1530,-82.8010,10.0,2.35,127.33,2.84,'1111122,1111122,1111122' 
COMPS,ioos:station:USF.COMPS:FHP:1,2019-01-01T10:48:00Z,28.1530,-82.8010,10.0,2.32,127.61,2.74,'1111122,1111122,1111122' 
COMPS,ioos:station:USF.COMPS:FHP:1,2019-01-01T10:54:00Z,28.1530,-82.8010,10.0,2.28,124.37,2.84,'1111122,1111122,1111122' 
COMPS,ioos:station:USF.COMPS:FHP:1,2019-01-01T11:00:00Z,28.1530,-82.8010,10.0,2.17,123.56,2.64,'1111122,1111122,1111122' 
COMPS,ioos:station:USF.COMPS:FHP:1,2019-01-01T11:06:00Z,28.1530,-82.8010,10.0,2.11,123.93,2.64,'1111122,1111122,1111122' 
COMPS,ioos:station:USF.COMPS:FHP:1,2019-01-01T11:12:00Z,28.1530,-82.8010,10.0,2.12,123.01,2.64,'1111122,1111122,1111122' 
COMPS,ioos:station:USF.COMPS:FHP:1,2019-01-01T11:18:00Z,28.1530,-82.8010,10.0,2.26,128.01,3.13,'1111122,1111122,1111122' 
COMPS,ioos:station:USF.COMPS:FHP:1,2019-01-01T11:24:00Z,28.1530,-82.8010,10.0,3.15,133.91,3.82,'1111122,1111122,1111122' 
COMPS,ioos:station:USF.COMPS:FHP:1,2019-01-01T11:30:00Z,28.1530,-82.8010,10.0,3.6,132.47,4.21,'1111122,1111122,1111122' 
COMPS,ioos:station:USF.COMPS:FHP:1,2019-01-01T11:36:00Z,28.1530,-82.8010,10.0,3.69,129.65,4.99,'1111122,1111122,1111122' 
COMPS,ioos:station:USF.COMPS:FHP:1,2019-01-01T11:42:00Z,28.1530,-82.8010,10.0,3.31,127.65,4.01,'1111122,1111122,1111122' 
COMPS,ioos:station:USF.COMPS:FHP:1,2019-01-01T11:48:00Z,28.1530,-82.8010,10.0,3.23,127.27,3.82,'1111122,1111122,1111122' 
COMPS,ioos:station:USF.COMPS:FHP:1,2019-01-01T11:54:00Z,28.1530,-82.8010,10.0,3.25,124.51,3.82,'1111122,1111122,1111122' 
COMPS,ioos:station:USF.COMPS:FHP:1,2019-01-01T12:00:00Z,28.1530,-82.8010,10.0,3.02,125.12,3.62,'1111122,1111122,1111122' 
COMPS,ioos:station:USF.COMPS:FHP:1,2019-01-01T12:06:00Z,28.1530,-82.8010,10.0,3.03,121.54,3.52,'1111122,1111122,1111122' 
COMPS,ioos:station:USF.COMPS:FHP:1,2019-01-01T12:12:00Z,28.1530,-82.8010,10.0,2.76,127.29,3.42,'1111122,1111122,1111122' 
COMPS,ioos:station:USF.COMPS:FHP:1,2019-01-01T12:18:00Z,28.1530,-82.8010,10.0,2.76,129.02,3.42,'1111122,1111122,1111122' 
COMPS,ioos:station:USF.COMPS:FHP:1,2019-01-01T12:24:00Z,28.1530,-82.8010,10.0,2.8,128.01,3.72,'1111122,1111122,1111122' 
COMPS,ioos:station:USF.COMPS:FHP:1,2019-01-01T12:30:00Z,28.1530,-82.8010,10.0,2.71,129.06,3.33,'1111122,1111122,1111122' 
COMPS,ioos:station:USF.COMPS:FHP:1,2019-01-01T12:36:00Z,28.1530,-82.8010,10.0,2.72,129.27,3.33,'1111122,1111122,1111122' 
COMPS,ioos:station:USF.COMPS:FHP:1,2019-01-01T12:42:00Z,28.1530,-82.8010,10.0,2.59,130.42,3.33,'1111122,1111122,1111122' 
COMPS,ioos:station:USF.COMPS:FHP:1,2019-01-01T12:48:00Z,28.1530,-82.8010,10.0,2.43,134.31,2.84,'1111122,1111122,1111122' 
COMPS,ioos:station:USF.COMPS:FHP:1,2019-01-01T12:54:00Z,28.1530,-82.8010,10.0,2.58,138.96,3.13,'1111122,1111122,1111122' 
COMPS,ioos:station:USF.COMPS:FHP:1,2019-01-01T13:00:00Z,28.1530,-82.8010,10.0,2.7,135.68,3.03,'1111122,1111122,1111122' 
COMPS,ioos:station:USF.COMPS:FHP:1,2019-01-01T13:06:00Z,28.1530,-82.8010,10.0,2.65,134.06,3.33,'1111122,1111122,1111122' 
COMPS,ioos:station:USF.COMPS:FHP:1,2019-01-01T13:12:00Z,28.1530,-82.8010,10.0,2.72,130.91,3.23,'1111122,1111122,1111122' 
COMPS,ioos:station:USF.COMPS:FHP:1,2019-01-01T13:18:00Z,28.1530,-82.8010,10.0,2.57,127.14,3.23,'1111122,1111122,1111122' 
COMPS,ioos:station:USF.COMPS:FHP:1,2019-01-01T13:24:00Z,28.1530,-82.8010,10.0,2.66,128.95,3.13,'1111122,1111122,1111122' 
COMPS,ioos:station:USF.COMPS:FHP:1,2019-01-01T13:30:00Z,28.1530,-82.8010,10.0,2.73,132.65,3.72,'1111122,1111122,1111122' 
COMPS,ioos:station:USF.COMPS:FHP:1,2019-01-01T13:36:00Z,28.1530,-82.8010,10.0,2.9,136.06,3.62,'1111122,1111122,1111122' 
COMPS,ioos:station:USF.COMPS:FHP:1,2019-01-01T13:42:00Z,28.1530,-82.8010,10.0,3.1,135.8,3.72,'1111122,1111122,1111122' 
COMPS,ioos:station:USF.COMPS:FHP:1,2019-01-01T13:48:00Z,28.1530,-82.8010,10.0,3.26,133.39,4.11,'1111122,1111122,1111122' 
COMPS,ioos:station:USF.COMPS:FHP:1,2019-01-01T13:54:00Z,28.1530,-82.8010,10.0,3.38,131.51,4.9,'1111122,1111122,1111122' 
COMPS,ioos:station:USF.COMPS:FHP:1,2019-01-01T14:00:00Z,28.1530,-82.8010,10.0,3.35,135.1,4.21,'1111122,1111122,1111122' 
COMPS,ioos:station:USF.COMPS:FHP:1,2019-01-01T14:06:00Z,28.1530,-82.8010,10.0,3.65,141.81,4.9,'1111122,1111122,1111122' 
COMPS,ioos:station:USF.COMPS:FHP:1,2019-01-01T14:12:00Z,28.1530,-82.8010,10.0,3.31,141.7,3.82,'1111122,1111122,1111122' 
COMPS,ioos:station:USF.COMPS:FHP:1,2019-01-01T14:18:00Z,28.1530,-82.8010,10.0,3.22,143.85,4.21,'1111122,1111122,1111122' 
COMPS,ioos:station:USF.COMPS:FHP:1,2019-01-01T14:24:00Z,28.1530,-82.8010,10.0,2.9,146.52,3.72,'1111122,1111122,1111122' 
COMPS,ioos:station:USF.COMPS:FHP:1,2019-01-01T14:30:00Z,28.1530,-82.8010,10.0,3.23,151.42,4.01,'1111122,1111122,1111122' 
COMPS,ioos:station:USF.COMPS:FHP:1,2019-01-01T14:36:00Z,28.1530,-82.8010,10.0,3.91,153.45,4.8,'1111122,1111122,1111122' 
COMPS,ioos:station:USF.COMPS:FHP:1,2019-01-01T14:42:00Z,28.1530,-82.8010,10.0,3.82,153.17,4.7,'1111122,1111122,1111122' 
COMPS,ioos:station:USF.COMPS:FHP:1,2019-01-01T14:48:00Z,28.1530,-82.8010,10.0,4.36,151.22,5.39,'1111122,1111122,1111122' 
COMPS,ioos:station:USF.COMPS:FHP:1,2019-01-01T14:54:00Z,28.1530,-82.8010,10.0,4.38,151.63,5.19,'1111122,1111122,1111122' 
COMPS,ioos:station:USF.COMPS:FHP:1,2019-01-01T15:00:00Z,28.1530,-82.8010,10.0,4.02,156.83,4.8,'1111122,1111122,1111122' 
COMPS,ioos:station:USF.COMPS:FHP:1,2019-01-01T15:06:00Z,28.1530,-82.8010,10.0,3.88,160.42,4.41,'1111122,1111122,1111122' 
COMPS,ioos:station:USF.COMPS:FHP:1,2019-01-01T15:12:00Z,28.1530,-82.8010,10.0,3.54,163.23,4.11,'1111122,1111122,1111122' 
COMPS,ioos:station:USF.COMPS:FHP:1,2019-01-01T15:18:00Z,28.1530,-82.8010,10.0,3.45,169.14,4.5,'1111122,1111122,1111122' 
COMPS,ioos:station:USF.COMPS:FHP:1,2019-01-01T15:24:00Z,28.1530,-82.8010,10.0,3.5,174.06,4.11,'1111122,1111122,1111122' 
COMPS,ioos:station:USF.COMPS:FHP:1,2019-01-01T15:30:00Z,28.1530,-82.8010,10.0,2.97,178.01,3.82,'1111122,1111122,1111122' 
COMPS,ioos:station:USF.COMPS:FHP:1,2019-01-01T15:36:00Z,28.1530,-82.8010,10.0,3.19,182.97,3.72,'1111122,1111122,1111122' 
COMPS,ioos:station:USF.COMPS:FHP:1,2019-01-01T15:42:00Z,28.1530,-82.8010,10.0,3.0,188.46,3.42,'1111122,1111122,1111122' 
COMPS,ioos:station:USF.COMPS:FHP:1,2019-01-01T15:48:00Z,28.1530,-82.8010,10.0,3.08,190.15,3.52,'1111122,1111122,1111122' 
COMPS,ioos:station:USF.COMPS:FHP:1,2019-01-01T15:54:00Z,28.1530,-82.8010,10.0,3.18,190.8,3.72,'1111122,1111122,1111122' 
COMPS,ioos:station:USF.COMPS:FHP:1,2019-01-01T16:00:00Z,28.1530,-82.8010,10.0,2.85,203.0,3.23,'1111122,1111122,1111122' 
COMPS,ioos:station:USF.COMPS:FHP:1,2019-01-01T16:06:00Z,28.1530,-82.8010,10.0,2.56,211.54,2.93,'1111122,1111122,1111122' 
COMPS,ioos:station:USF.COMPS:FHP:1,2019-01-01T16:12:00Z,28.1530,-82.8010,10.0,2.34,222.36,2.74,'1111122,1111122,1111122' 
COMPS,ioos:station:USF.COMPS:FHP:1,2019-01-01T16:18:00Z,28.1530,-82.8010,10.0,2.42,222.01,2.64,'1111122,1111122,1111122' 
COMPS,ioos:station:USF.COMPS:FHP:1,2019-01-01T16:24:00Z,28.1530,-82.8010,10.0,2.48,219.38,2.93,'1111122,1111122,1111122' 
COMPS,ioos:station:USF.COMPS:FHP:1,2019-01-01T16:30:00Z,28.1530,-82.8010,10.0,2.6,222.82,2.93,'1111122,1111122,1111122' 
COMPS,ioos:station:USF.COMPS:FHP:1,2019-01-01T16:36:00Z,28.1530,-82.8010,10.0,2.33,228.36,2.64,'1111122,1111122,1111122' 
COMPS,ioos:station:USF.COMPS:FHP:1,2019-01-01T16:42:00Z,28.1530,-82.8010,10.0,2.41,224.81,2.74,'1111122,1111122,1111122' 
COMPS,ioos:station:USF.COMPS:FHP:1,2019-01-01T16:48:00Z,28.1530,-82.8010,10.0,2.29,224.96,2.74,'1111122,1111122,1111122' 
COMPS,ioos:station:USF.COMPS:FHP:1,2019-01-01T16:54:00Z,28.1530,-82.8010,10.0,2.55,228.19,2.84,'1111122,1111122,1111122' 
COMPS,ioos:station:USF.COMPS:FHP:1,2019-01-01T17:00:00Z,28.1530,-82.8010,10.0,2.34,227.86,2.64,'1111122,1111122,1111122' 
COMPS,ioos:station:USF.COMPS:FHP:1,2019-01-01T17:06:00Z,28.1530,-82.8010,10.0,2.49,242.89,2.84,'1111122,1111122,1111122' 
COMPS,ioos:station:USF.COMPS:FHP:1,2019-01-01T17:12:00Z,28.1530,-82.8010,10.0,2.27,252.05,2.84,'1111122,1111122,1111122' 
COMPS,ioos:station:USF.COMPS:FHP:1,2019-01-01T17:18:00Z,28.1530,-82.8010,10.0,2.5,272.04,2.74,'1111122,1111122,1111122' 
COMPS,ioos:station:USF.COMPS:FHP:1,2019-01-01T17:24:00Z,28.1530,-82.8010,10.0,2.58,275.74,2.93,'1111122,1111122,1111122' 
COMPS,ioos:station:USF.COMPS:FHP:1,2019-01-01T17:30:00Z,28.1530,-82.8010,10.0,2.76,274.36,3.03,'1111122,1111122,1111122' 
COMPS,ioos:station:USF.COMPS:FHP:1,2019-01-01T17:36:00Z,28.1530,-82.8010,10.0,2.91,274.26,3.23,'1111122,1111122,1111122' 
COMPS,ioos:station:USF.COMPS:FHP:1,2019-01-01T17:42:00Z,28.1530,-82.8010,10.0,2.66,274.51,2.93,'1111122,1111122,1111122' 
COMPS,ioos:station:USF.COMPS:FHP:1,2019-01-01T17:48:00Z,28.1530,-82.8010,10.0,2.66,275.31,3.23,'1111122,1111122,1111122' 
COMPS,ioos:station:USF.COMPS:FHP:1,2019-01-01T17:54:00Z,28.1530,-82.8010,10.0,2.84,278.68,3.52,'1111122,1111122,1111122' 
COMPS,ioos:station:USF.COMPS:FHP:1,2019-01-01T18:00:00Z,28.1530,-82.8010,10.0,2.46,287.07,3.13,'1111122,1111122,1111122' 
COMPS,ioos:station:USF.COMPS:FHP:1,2019-01-01T18:06:00Z,28.1530,-82.8010,10.0,2.55,287.79,3.72,'1111122,1111122,1111122' 
COMPS,ioos:station:USF.COMPS:FHP:1,2019-01-01T18:12:00Z,28.1530,-82.8010,10.0,3.01,283.78,4.9,'1111122,1111122,1111122' 
COMPS,ioos:station:USF.COMPS:FHP:1,2019-01-01T18:18:00Z,28.1530,-82.8010,10.0,3.78,278.23,4.41,'1111122,1111122,1111122' 
COMPS,ioos:station:USF.COMPS:FHP:1,2019-01-01T18:24:00Z,28.1530,-82.8010,10.0,3.84,279.24,4.6,'1111122,1111122,1111122' 
COMPS,ioos:station:USF.COMPS:FHP:1,2019-01-01T18:30:00Z,28.1530,-82.8010,10.0,4.3,275.29,4.7,'1111122,1111122,1111122' 
COMPS,ioos:station:USF.COMPS:FHP:1,2019-01-01T18:36:00Z,28.1530,-82.8010,10.0,4.74,269.31,5.29,'1111122,1111122,1111122' 
COMPS,ioos:station:USF.COMPS:FHP:1,2019-01-01T18:42:00Z,28.1530,-82.8010,10.0,5.1,266.85,5.78,'1111122,1111122,1111122' 
COMPS,ioos:station:USF.COMPS:FHP:1,2019-01-01T18:48:00Z,28.1530,-82.8010,10.0,4.96,264.74,5.58,'1111122,1111122,1111122' 
COMPS,ioos:station:USF.COMPS:FHP:1,2019-01-01T18:54:00Z,28.1530,-82.8010,10.0,4.54,262.55,5.29,'1111122,1111122,1111122' 
COMPS,ioos:station:USF.COMPS:FHP:1,2019-01-01T19:00:00Z,28.1530,-82.8010,10.0,4.39,265.91,5.39,'1111122,1111122,1111122' 
COMPS,ioos:station:USF.COMPS:FHP:1,2019-01-01T19:06:00Z,28.1530,-82.8010,10.0,4.33,268.43,4.99,'1111122,1111122,1111122' 
COMPS,ioos:station:USF.COMPS:FHP:1,2019-01-01T19:12:00Z,28.1530,-82.8010,10.0,4.15,270.98,4.8,'1111122,1111122,1111122' 
COMPS,ioos:station:USF.COMPS:FHP:1,2019-01-01T19:18:00Z,28.1530,-82.8010,10.0,4.15,271.8,4.8,'1111122,1111122,1111122' 
COMPS,ioos:station:USF.COMPS:FHP:1,2019-01-01T19:24:00Z,28.1530,-82.8010,10.0,3.43,279.99,4.11,'1111122,1111122,1111122' 
COMPS,ioos:station:USF.COMPS:FHP:1,2019-01-01T19:30:00Z,28.1530,-82.8010,10.0,3.36,284.66,4.7,'1111122,1111122,1111122' 